Time,TemperatureF,DewpointF,PressureIn,WindDirection,WindDirectionDegrees,WindSpeedMPH,WindSpeedGustMPH,Humidity,HourlyPrecipIn,Conditions,Clouds,dailyrainin,SoftwareType,DateUTC
2013-10-19 00:00:00,45.5,43.3,0.00,WNW,299,0.0,0.0,92,0.00,,---,0.00,VWS V13.01,2013-10-19 04:00:00,
2013-10-19 00:01:00,45.7,43.5,0.00,WNW,300,0.0,0.0,92,0.00,,---,0.00,VWS V13.01,2013-10-19 04:01:00,
2013-10-19 00:06:00,45.3,43.1,0.00,WNW,300,0.0,0.0,92,0.00,,---,0.00,VWS V13.01,2013-10-19 04:06:00,
2013-10-19 00:11:00,45.1,43.0,0.00,WNW,300,0.0,0.0,92,0.00,,---,0.00,VWS V13.01,2013-10-19 04:11:00,
2013-10-19 00:16:00,44.8,42.6,0.00,WNW,300,0.0,0.0,92,0.00,,---,0.00,VWS V13.01,2013-10-19 04:16:00,
2013-10-19 00:22:00,44.6,42.7,0.00,WNW,300,0.0,0.0,93,0.00,,---,0.00,VWS V13.01,2013-10-19 04:22:00,
2013-10-19 00:27:00,44.6,42.7,0.00,WNW,300,0.0,0.0,93,0.00,,---,0.00,VWS V13.01,2013-10-19 04:27:00,
2013-10-19 00:32:00,44.4,42.8,0.00,WNW,300,0.0,0.0,94,0.00,,---,0.00,VWS V13.01,2013-10-19 04:32:00,
2013-10-19 00:37:00,44.6,43.0,0.00,WNW,300,0.0,0.0,94,0.00,,---,0.00,VWS V13.01,2013-10-19 04:37:00,
2013-10-19 00:41:00,45.0,43.3,0.00,WNW,300,0.0,0.0,94,0.00,,---,0.00,VWS V13.01,2013-10-19 04:41:00,
2013-10-19 00:46:00,45.0,43.3,0.00,WNW,300,0.0,0.0,94,0.00,,---,0.00,VWS V13.01,2013-10-19 04:46:00,
2013-10-19 00:51:00,44.6,43.0,0.00,WNW,300,0.0,0.0,94,0.00,,---,0.00,VWS V13.01,2013-10-19 04:51:00,
2013-10-19 00:56:00,44.8,43.2,0.00,WNW,300,0.0,0.0,94,0.00,,---,0.00,VWS V13.01,2013-10-19 04:56:00,
2013-10-19 01:01:00,44.6,43.3,0.00,WNW,300,0.0,0.0,95,0.00,,---,0.00,VWS V13.01,2013-10-19 05:01:00,
2013-10-19 01:06:00,44.4,43.1,0.00,WNW,300,0.0,0.0,95,0.00,,---,0.00,VWS V13.01,2013-10-19 05:06:00,
2013-10-19 01:11:00,44.2,42.9,0.00,WNW,300,0.0,0.0,95,0.00,,---,0.00,VWS V13.01,2013-10-19 05:11:00,
2013-10-19 01:16:00,44.2,43.2,0.00,WNW,300,0.0,0.0,96,0.00,,---,0.00,VWS V13.01,2013-10-19 05:16:00,
2013-10-19 01:21:00,44.6,43.5,0.00,WNW,300,0.0,0.0,96,0.00,,---,0.00,VWS V13.01,2013-10-19 05:21:00,
2013-10-19 01:26:00,45.0,43.9,0.00,WNW,300,0.0,0.0,96,0.00,,---,0.00,VWS V13.01,2013-10-19 05:26:00,
2013-10-19 01:31:00,45.3,44.2,0.00,WNW,300,0.0,0.0,96,0.00,,---,0.00,VWS V13.01,2013-10-19 05:31:00,
2013-10-19 01:36:00,45.9,44.8,0.00,WNW,300,0.0,0.0,96,0.00,,---,0.00,VWS V13.01,2013-10-19 05:36:00,
2013-10-19 01:41:00,46.4,45.3,0.00,WNW,300,0.0,0.0,96,0.00,,---,0.00,VWS V13.01,2013-10-19 05:41:00,
2013-10-19 01:46:00,46.8,45.4,0.00,WNW,300,0.0,0.0,95,0.00,,---,0.00,VWS V13.01,2013-10-19 05:46:00,
2013-10-19 01:51:00,47.3,45.7,0.00,WNW,300,0.0,0.0,94,0.00,,---,0.00,VWS V13.01,2013-10-19 05:51:00,
2013-10-19 01:56:00,47.7,45.7,0.00,WNW,294,0.0,0.0,93,0.00,,---,0.00,VWS V13.01,2013-10-19 05:56:00,
2013-10-19 02:01:00,48.0,45.8,0.00,WNW,291,0.0,0.0,92,0.00,,---,0.00,VWS V13.01,2013-10-19 06:01:00,
2013-10-19 02:06:00,48.2,45.7,0.00,WNW,291,0.0,0.0,91,0.00,,---,0.00,VWS V13.01,2013-10-19 06:06:00,
2013-10-19 02:11:00,48.6,45.8,0.00,WNW,291,0.0,0.0,90,0.00,,---,0.00,VWS V13.01,2013-10-19 06:11:00,
2013-10-19 02:16:00,48.7,45.7,0.00,WNW,291,0.0,0.0,89,0.00,,---,0.00,VWS V13.01,2013-10-19 06:16:00,
2013-10-19 02:21:00,48.7,45.3,0.00,WNW,291,0.0,0.0,88,0.00,,---,0.00,VWS V13.01,2013-10-19 06:21:00,
2013-10-19 02:26:00,49.3,45.3,0.00,WNW,291,0.0,0.0,86,0.00,,---,0.00,VWS V13.01,2013-10-19 06:26:00,
2013-10-19 02:31:00,49.3,45.0,0.00,WNW,291,0.0,0.0,85,0.00,,---,0.00,VWS V13.01,2013-10-19 06:31:00,
2013-10-19 02:36:00,49.3,45.0,0.00,WNW,291,0.0,0.0,85,0.00,,---,0.00,VWS V13.01,2013-10-19 06:36:00,
2013-10-19 02:41:00,49.6,45.0,0.00,WNW,291,0.0,0.0,84,0.00,,---,0.00,VWS V13.01,2013-10-19 06:41:00,
2013-10-19 02:46:00,49.8,44.9,0.00,WNW,291,0.0,0.0,83,0.00,,---,0.00,VWS V13.01,2013-10-19 06:46:00,
2013-10-19 02:51:00,50.0,44.4,0.00,WNW,291,0.0,0.0,81,0.00,,---,0.00,VWS V13.01,2013-10-19 06:51:00,
2013-10-19 02:56:00,49.8,44.2,0.00,WNW,291,0.0,0.0,81,0.00,,---,0.00,VWS V13.01,2013-10-19 06:56:00,
2013-10-19 03:01:00,49.8,44.2,0.00,WNW,291,0.0,0.0,81,0.00,,---,0.00,VWS V13.01,2013-10-19 07:01:00,
2013-10-19 03:06:00,50.0,44.1,0.00,WNW,291,0.0,0.0,80,0.00,,---,0.00,VWS V13.01,2013-10-19 07:06:00,
2013-10-19 03:11:00,50.0,43.8,0.00,WNW,291,0.0,0.0,79,0.00,,---,0.00,VWS V13.01,2013-10-19 07:11:00,
2013-10-19 03:16:00,50.2,43.6,0.00,WNW,294,0.0,0.0,78,0.00,,---,0.00,VWS V13.01,2013-10-19 07:16:00,
2013-10-19 03:21:00,50.2,43.6,0.00,WNW,294,0.0,0.0,78,0.00,,---,0.00,VWS V13.01,2013-10-19 07:21:00,
2013-10-19 03:26:00,50.4,43.4,0.00,WNW,294,0.0,0.0,77,0.00,,---,0.00,VWS V13.01,2013-10-19 07:26:00,
2013-10-19 03:31:00,50.7,43.4,0.00,West,259,0.0,5.6,76,0.00,,---,0.00,VWS V13.01,2013-10-19 07:31:00,
2013-10-19 03:36:00,50.9,42.9,0.00,West,259,0.0,0.0,74,0.00,,---,0.00,VWS V13.01,2013-10-19 07:36:00,
2013-10-19 03:41:00,51.1,42.7,0.00,WSW,256,0.0,0.0,73,0.00,,---,0.00,VWS V13.01,2013-10-19 07:41:00,
2013-10-19 03:47:00,51.3,42.5,0.00,WSW,255,0.0,0.0,72,0.00,,---,0.00,VWS V13.01,2013-10-19 07:47:00,
2013-10-19 03:52:00,51.4,42.4,0.00,WSW,258,0.0,5.6,71,0.00,,---,0.00,VWS V13.01,2013-10-19 07:52:00,
2013-10-19 03:57:00,51.4,42.0,0.00,West,262,4.7,6.4,70,0.00,,---,0.00,VWS V13.01,2013-10-19 07:57:00,
2013-10-19 04:02:00,51.6,41.8,0.00,WSW,251,0.0,0.0,69,0.00,,---,0.00,VWS V13.01,2013-10-19 08:02:00,
2013-10-19 04:07:00,51.6,41.0,0.00,WSW,244,0.0,8.9,67,0.00,,---,0.00,VWS V13.01,2013-10-19 08:07:00,
2013-10-19 04:12:00,51.3,40.7,0.00,WSW,244,0.0,0.0,67,0.00,,---,0.00,VWS V13.01,2013-10-19 08:12:00,
2013-10-19 04:18:00,50.7,39.8,0.00,ESE,115,0.0,0.0,66,0.00,,---,0.00,VWS V13.01,2013-10-19 08:18:00,
2013-10-19 04:23:00,50.5,39.6,0.00,ESE,116,0.0,0.0,66,0.00,,---,0.00,VWS V13.01,2013-10-19 08:23:00,
2013-10-19 04:28:00,50.5,39.6,0.00,ESE,115,0.0,0.0,66,0.00,,---,0.00,VWS V13.01,2013-10-19 08:28:00,
2013-10-19 04:37:00,50.4,39.5,0.00,ESE,115,0.0,0.0,66,0.00,,---,0.00,VWS V13.01,2013-10-19 08:37:00,
2013-10-19 04:42:00,50.5,39.6,0.00,ESE,116,0.0,0.0,66,0.00,,---,0.00,VWS V13.01,2013-10-19 08:42:00,
2013-10-19 04:47:00,50.5,39.6,0.00,ESE,116,0.0,0.0,66,0.00,,---,0.00,VWS V13.01,2013-10-19 08:47:00,
2013-10-19 04:52:00,50.7,40.2,0.00,ESE,116,0.0,0.0,67,0.00,,---,0.00,VWS V13.01,2013-10-19 08:52:00,
2013-10-19 04:59:00,50.7,40.6,0.00,ESE,116,0.0,0.0,68,0.00,,---,0.00,VWS V13.01,2013-10-19 08:59:00,
2013-10-19 05:04:00,50.9,40.7,0.00,ESE,115,0.0,0.0,68,0.00,,---,0.00,VWS V13.01,2013-10-19 09:04:00,
2013-10-19 05:10:00,51.1,40.9,0.00,ESE,117,0.0,0.0,68,0.00,,---,0.00,VWS V13.01,2013-10-19 09:10:00,
2013-10-19 05:15:00,51.6,40.7,0.00,ESE,117,0.0,0.0,66,0.00,,---,0.00,VWS V13.01,2013-10-19 09:15:00,
2013-10-19 05:20:00,51.6,40.2,0.00,ESE,117,0.0,0.0,65,0.00,,---,0.00,VWS V13.01,2013-10-19 09:20:00,
2013-10-19 05:25:00,51.6,40.2,0.00,ESE,117,0.0,0.0,65,0.00,,---,0.00,VWS V13.01,2013-10-19 09:25:00,
2013-10-19 05:30:00,51.8,40.0,0.00,ESE,117,0.0,0.0,64,0.00,,---,0.00,VWS V13.01,2013-10-19 09:30:00,
2013-10-19 05:35:00,51.8,40.4,0.00,ESE,117,0.0,0.0,65,0.00,,---,0.00,VWS V13.01,2013-10-19 09:35:00,
2013-10-19 05:40:00,52.0,40.6,0.00,ESE,118,0.0,0.0,65,0.00,,---,0.00,VWS V13.01,2013-10-19 09:40:00,
2013-10-19 05:45:00,52.0,40.6,0.00,ESE,118,0.0,0.0,65,0.00,,---,0.00,VWS V13.01,2013-10-19 09:45:00,
2013-10-19 05:51:00,52.2,40.8,0.00,ESE,118,0.0,0.0,65,0.00,,---,0.00,VWS V13.01,2013-10-19 09:51:00,
2013-10-19 05:56:00,52.0,41.0,0.00,ESE,118,0.0,0.0,66,0.00,,---,0.00,VWS V13.01,2013-10-19 09:56:00,
2013-10-19 06:01:00,51.8,41.2,0.00,ESE,118,0.0,0.0,67,0.00,,---,0.00,VWS V13.01,2013-10-19 10:01:00,
2013-10-19 06:06:00,51.6,41.4,0.00,ESE,119,0.0,0.0,68,0.00,,---,0.00,VWS V13.01,2013-10-19 10:06:00,
2013-10-19 06:11:00,51.3,41.1,0.00,ESE,117,0.0,0.0,68,0.00,,---,0.00,VWS V13.01,2013-10-19 10:11:00,
2013-10-19 06:16:00,50.9,40.7,0.00,ESE,117,0.0,0.0,68,0.00,,---,0.00,VWS V13.01,2013-10-19 10:16:00,
2013-10-19 06:21:00,50.7,40.9,0.00,ESE,117,0.0,0.0,69,0.00,,---,0.00,VWS V13.01,2013-10-19 10:21:00,
2013-10-19 06:26:00,50.5,40.8,0.00,ESE,117,0.0,0.0,69,0.00,,---,0.00,VWS V13.01,2013-10-19 10:26:00,
2013-10-19 06:31:00,50.4,40.6,0.00,ESE,117,0.0,0.0,69,0.00,,---,0.00,VWS V13.01,2013-10-19 10:31:00,
2013-10-19 06:36:00,50.4,41.0,0.00,ESE,117,0.0,0.0,70,0.00,,---,0.00,VWS V13.01,2013-10-19 10:36:00,
2013-10-19 06:41:00,50.4,41.0,0.00,ESE,117,0.0,0.0,70,0.00,,---,0.00,VWS V13.01,2013-10-19 10:41:00,
2013-10-19 06:46:00,50.2,40.8,0.00,ESE,117,0.0,0.0,70,0.00,,---,0.00,VWS V13.01,2013-10-19 10:46:00,
2013-10-19 06:52:00,50.2,41.2,0.00,ESE,117,0.0,0.0,71,0.00,,---,0.00,VWS V13.01,2013-10-19 10:52:00,
2013-10-19 06:57:00,50.2,41.5,0.00,ESE,117,0.0,0.0,72,0.00,,---,0.00,VWS V13.01,2013-10-19 10:57:00,
2013-10-19 07:02:00,50.2,41.5,0.00,ESE,117,0.0,0.0,72,0.00,,---,0.00,VWS V13.01,2013-10-19 11:02:00,
2013-10-19 07:07:00,50.0,41.7,0.00,ESE,117,0.0,0.0,73,0.00,,---,0.00,VWS V13.01,2013-10-19 11:07:00,
2013-10-19 07:13:00,49.8,41.9,0.00,ESE,117,0.0,0.0,74,0.00,,---,0.00,VWS V13.01,2013-10-19 11:13:00,
2013-10-19 07:18:00,49.6,42.0,0.00,ESE,117,0.0,0.0,75,0.00,,---,0.00,VWS V13.01,2013-10-19 11:18:00,
2013-10-19 07:23:00,49.8,42.2,0.00,ESE,117,0.0,0.0,75,0.00,,---,0.00,VWS V13.01,2013-10-19 11:23:00,
2013-10-19 07:28:00,49.6,42.4,0.00,ESE,117,0.0,0.0,76,0.00,,---,0.00,VWS V13.01,2013-10-19 11:28:00,
2013-10-19 07:33:00,49.6,42.4,0.00,ESE,117,0.0,0.0,76,0.00,,---,0.00,VWS V13.01,2013-10-19 11:33:00,
2013-10-19 07:38:00,49.5,42.2,0.00,ESE,117,0.0,0.0,76,0.00,,---,0.00,VWS V13.01,2013-10-19 11:38:00,
2013-10-19 07:43:00,49.5,42.6,0.00,ESE,117,0.0,0.0,77,0.00,,---,0.00,VWS V13.01,2013-10-19 11:43:00,
2013-10-19 07:48:00,49.6,42.7,0.00,ESE,122,0.0,0.0,77,0.00,,---,0.00,VWS V13.01,2013-10-19 11:48:00,
2013-10-19 07:53:00,49.8,42.9,0.00,ESE,122,0.0,0.0,77,0.00,,---,0.00,VWS V13.01,2013-10-19 11:53:00,
2013-10-19 07:58:00,50.0,43.1,0.00,ESE,122,0.0,0.0,77,0.00,,---,0.00,VWS V13.01,2013-10-19 11:58:00,
2013-10-19 08:03:00,50.2,42.9,0.00,ESE,122,0.0,0.0,76,0.00,,---,0.00,VWS V13.01,2013-10-19 12:03:00,
2013-10-19 08:08:00,50.4,43.1,0.00,ESE,122,0.0,0.0,76,0.00,,---,0.00,VWS V13.01,2013-10-19 12:08:00,
2013-10-19 08:13:00,50.7,42.8,0.00,ESE,122,0.0,0.0,74,0.00,,---,0.00,VWS V13.01,2013-10-19 12:13:00,
2013-10-19 08:19:00,50.9,42.9,0.00,ESE,122,0.0,0.0,74,0.00,,---,0.00,VWS V13.01,2013-10-19 12:19:00,
2013-10-19 08:24:00,51.3,42.5,0.00,SSE,160,0.0,0.0,72,0.00,,---,0.00,VWS V13.01,2013-10-19 12:24:00,
2013-10-19 08:29:00,51.6,42.5,0.00,SSE,159,0.0,0.0,71,0.00,,---,0.00,VWS V13.01,2013-10-19 12:29:00,
2013-10-19 08:34:00,51.8,42.3,0.00,NNW,333,0.0,0.0,70,0.00,,---,0.00,VWS V13.01,2013-10-19 12:34:00,
2013-10-19 08:42:00,52.0,42.5,0.00,NNW,333,0.0,0.0,70,0.00,,---,0.00,VWS V13.01,2013-10-19 12:42:00,
2013-10-19 08:47:00,52.9,41.8,0.00,SE,132,0.0,7.2,66,0.00,,---,0.00,VWS V13.01,2013-10-19 12:47:00,
2013-10-19 08:54:00,53.2,41.8,0.00,SE,133,0.0,0.0,65,0.00,,---,0.00,VWS V13.01,2013-10-19 12:54:00,
2013-10-19 09:00:00,53.6,41.3,0.00,SE,126,0.0,5.6,63,0.00,,---,0.00,VWS V13.01,2013-10-19 13:00:00,
2013-10-19 09:05:00,53.6,41.3,0.00,SE,131,0.0,0.0,63,0.00,,---,0.00,VWS V13.01,2013-10-19 13:05:00,
2013-10-19 09:10:00,53.6,41.3,0.00,SE,131,0.0,0.0,63,0.00,,---,0.00,VWS V13.01,2013-10-19 13:10:00,
2013-10-19 09:15:00,53.6,40.9,0.00,SSW,195,0.0,9.7,62,0.00,,---,0.00,VWS V13.01,2013-10-19 13:15:00,
2013-10-19 09:20:00,53.4,41.2,0.00,East,81,0.0,0.0,63,0.00,,---,0.00,VWS V13.01,2013-10-19 13:20:00,
2013-10-19 09:27:00,53.8,41.1,0.00,East,82,0.0,0.0,62,0.00,,---,0.00,VWS V13.01,2013-10-19 13:27:00,
2013-10-19 09:32:00,55.4,42.2,0.00,SW,225,0.0,10.5,61,0.00,,---,0.00,VWS V13.01,2013-10-19 13:32:00,
2013-10-19 09:37:00,56.1,42.4,0.00,SE,136,0.0,6.4,60,0.00,,---,0.00,VWS V13.01,2013-10-19 13:37:00,
2013-10-19 09:44:00,56.3,42.2,0.00,WSW,240,0.0,8.9,59,0.00,,---,0.00,VWS V13.01,2013-10-19 13:44:00,
2013-10-19 09:52:00,56.7,42.1,0.00,SSE,161,0.0,8.9,58,0.00,,---,0.00,VWS V13.01,2013-10-19 13:52:00,
2013-10-19 09:57:00,57.0,42.0,0.00,SE,130,0.0,7.2,57,0.00,,---,0.00,VWS V13.01,2013-10-19 13:57:00,
2013-10-19 10:02:00,57.4,42.3,0.00,ESE,110,0.0,0.0,57,0.00,,---,0.00,VWS V13.01,2013-10-19 14:02:00,
2013-10-19 10:07:00,57.7,42.2,0.00,East,98,4.0,7.2,56,0.00,,---,0.00,VWS V13.01,2013-10-19 14:07:00,
2013-10-19 10:12:00,57.9,41.9,0.00,SSW,194,4.7,13.7,55,0.00,,---,0.00,VWS V13.01,2013-10-19 14:12:00,
2013-10-19 10:17:00,58.5,42.4,0.00,SE,140,0.0,10.5,55,0.00,,---,0.00,VWS V13.01,2013-10-19 14:17:00,
2013-10-19 10:22:00,59.2,42.6,0.00,SSW,197,0.0,10.5,54,0.00,,---,0.00,VWS V13.01,2013-10-19 14:22:00,
2013-10-19 10:27:00,59.7,42.6,0.00,WSW,247,0.0,8.9,53,0.00,,---,0.00,VWS V13.01,2013-10-19 14:27:00,
2013-10-19 10:35:00,59.9,42.7,0.00,SE,126,6.0,7.2,53,0.00,,---,0.00,VWS V13.01,2013-10-19 14:35:00,
2013-10-19 10:42:00,60.1,41.9,0.00,South,189,4.0,6.4,51,0.00,,---,0.00,VWS V13.01,2013-10-19 14:42:00,
2013-10-19 10:47:00,60.3,42.1,0.00,SSW,212,9.4,11.3,51,0.00,,---,0.00,VWS V13.01,2013-10-19 14:47:00,
2013-10-19 10:52:00,60.6,42.4,0.00,SE,146,4.7,12.9,51,0.00,,---,0.00,VWS V13.01,2013-10-19 14:52:00,
2013-10-19 10:57:00,60.4,41.7,0.00,SW,232,9.4,13.7,50,0.00,,---,0.00,VWS V13.01,2013-10-19 14:57:00,
2013-10-19 11:02:00,60.8,41.5,0.00,SSW,206,5.4,9.7,49,0.00,,---,0.00,VWS V13.01,2013-10-19 15:02:00,
2013-10-19 11:09:00,61.5,42.2,0.00,SE,133,0.0,8.9,49,0.00,,---,0.00,VWS V13.01,2013-10-19 15:09:00,
2013-10-19 11:14:00,62.2,42.3,0.00,West,274,6.0,12.1,48,0.00,,---,0.00,VWS V13.01,2013-10-19 15:14:00,
2013-10-19 11:21:00,62.8,42.8,0.00,West,279,10.7,12.9,48,0.00,,---,0.00,VWS V13.01,2013-10-19 15:21:00,
2013-10-19 11:27:00,63.3,42.8,0.00,SSW,213,0.0,10.5,47,0.00,,---,0.00,VWS V13.01,2013-10-19 15:27:00,
2013-10-19 11:32:00,63.1,42.6,0.00,SSW,207,4.0,11.3,47,0.00,,---,0.00,VWS V13.01,2013-10-19 15:32:00,
2013-10-19 11:37:00,63.9,43.3,0.00,SSE,158,8.1,11.3,47,0.00,,---,0.00,VWS V13.01,2013-10-19 15:37:00,
2013-10-19 11:42:00,64.6,43.4,0.00,SSE,155,0.0,11.3,46,0.00,,---,0.00,VWS V13.01,2013-10-19 15:42:00,
2013-10-19 11:47:00,64.6,42.8,0.00,West,259,0.0,12.9,45,0.00,,---,0.00,VWS V13.01,2013-10-19 15:47:00,
2013-10-19 11:52:00,64.2,43.0,0.00,West,271,0.0,12.9,46,0.00,,---,0.00,VWS V13.01,2013-10-19 15:52:00,
2013-10-19 11:57:00,65.5,43.6,0.00,SSW,210,0.0,12.1,45,0.00,,---,0.00,VWS V13.01,2013-10-19 15:57:00,
2013-10-19 12:02:00,66.6,44.6,0.00,SE,141,0.0,11.3,45,0.00,,---,0.00,VWS V13.01,2013-10-19 16:02:00,
2013-10-19 12:07:00,67.3,44.7,0.00,WNW,297,10.7,12.9,44,0.00,,---,0.00,VWS V13.01,2013-10-19 16:07:00,
2013-10-19 12:14:00,66.9,44.3,0.00,NW,304,4.0,10.5,44,0.00,,---,0.00,VWS V13.01,2013-10-19 16:14:00,
2013-10-19 12:22:00,67.1,43.9,0.00,NE,44,3.4,14.5,43,0.00,,---,0.00,VWS V13.01,2013-10-19 16:22:00,
2013-10-19 12:27:00,67.1,43.9,0.00,SE,137,6.7,18.1,43,0.00,,---,0.00,VWS V13.01,2013-10-19 16:27:00,
2013-10-19 12:35:00,67.1,43.9,0.00,SE,133,8.1,10.5,43,0.00,,---,0.00,VWS V13.01,2013-10-19 16:35:00,
2013-10-19 12:42:00,66.2,43.1,0.00,SSE,154,3.4,12.1,43,0.00,,---,0.00,VWS V13.01,2013-10-19 16:42:00,
2013-10-19 12:47:00,66.7,43.5,0.00,ESE,113,4.7,10.5,43,0.00,,---,0.00,VWS V13.01,2013-10-19 16:47:00,
2013-10-19 12:53:00,67.3,44.0,0.00,ESE,120,9.4,14.5,43,0.00,,---,0.00,VWS V13.01,2013-10-19 16:53:00,
2013-10-19 12:58:00,66.7,42.9,0.00,South,179,4.7,13.7,42,0.00,,---,0.00,VWS V13.01,2013-10-19 16:58:00,
2013-10-19 13:05:00,66.0,41.7,0.00,SSE,153,4.7,11.3,41,0.00,,---,0.00,VWS V13.01,2013-10-19 17:05:00,
2013-10-19 13:10:00,64.4,39.6,0.00,SSE,164,5.4,18.9,40,0.00,,---,0.00,VWS V13.01,2013-10-19 17:10:00,
2013-10-19 13:15:00,64.4,40.2,0.00,South,169,7.4,10.5,41,0.00,,---,0.00,VWS V13.01,2013-10-19 17:15:00,
2013-10-19 13:21:00,64.8,40.5,0.00,WSW,253,4.7,10.5,41,0.00,,---,0.00,VWS V13.01,2013-10-19 17:21:00,
2013-10-19 13:26:00,64.9,40.7,0.00,SSE,165,0.0,14.9,41,0.00,,---,0.00,VWS V13.01,2013-10-19 17:26:00,
2013-10-19 13:36:00,64.6,41.0,0.00,SW,225,4.7,6.4,42,0.00,,---,0.00,VWS V13.01,2013-10-19 17:36:00,
2013-10-19 13:41:00,64.2,40.7,0.00,South,180,12.4,14.9,42,0.00,,---,0.00,VWS V13.01,2013-10-19 17:41:00,
2013-10-19 13:48:00,64.2,40.7,0.00,South,172,0.0,7.2,42,0.00,,---,0.00,VWS V13.01,2013-10-19 17:48:00,
2013-10-19 13:56:00,63.7,40.8,0.00,WSW,247,0.0,12.1,43,0.00,,---,0.00,VWS V13.01,2013-10-19 17:56:00,
2013-10-19 14:01:00,63.0,40.1,0.00,WSW,238,0.0,12.1,43,0.00,,---,0.00,VWS V13.01,2013-10-19 18:01:00,
2013-10-19 14:07:00,63.0,40.1,0.00,NW,314,0.0,0.0,43,0.00,,---,0.00,VWS V13.01,2013-10-19 18:07:00,
2013-10-19 14:12:00,62.6,39.8,0.00,WNW,293,4.0,9.7,43,0.00,,---,0.00,VWS V13.01,2013-10-19 18:12:00,
2013-10-19 14:17:00,62.4,40.2,0.00,WSW,244,7.4,10.5,44,0.00,,---,0.00,VWS V13.01,2013-10-19 18:17:00,
2013-10-19 14:22:00,62.4,40.2,0.00,WNW,288,4.7,9.7,44,0.00,,---,0.00,VWS V13.01,2013-10-19 18:22:00,
2013-10-19 14:27:00,62.6,40.4,0.00,NE,51,3.4,11.3,44,0.00,,---,0.00,VWS V13.01,2013-10-19 18:27:00,
2013-10-19 14:35:00,62.4,40.2,0.00,NW,307,0.0,6.4,44,0.00,,---,0.00,VWS V13.01,2013-10-19 18:35:00,
2013-10-19 14:40:00,61.9,39.8,0.00,SE,137,4.0,10.5,44,0.00,,---,0.00,VWS V13.01,2013-10-19 18:40:00,
2013-10-19 14:45:00,61.9,39.8,0.00,South,191,0.0,10.5,44,0.00,,---,0.00,VWS V13.01,2013-10-19 18:45:00,
2013-10-19 14:52:00,61.9,39.8,0.00,South,183,0.0,10.5,44,0.00,,---,0.00,VWS V13.01,2013-10-19 18:52:00,
2013-10-19 14:57:00,61.9,39.8,0.00,SSE,150,0.0,9.7,44,0.00,,---,0.00,VWS V13.01,2013-10-19 18:57:00,
2013-10-19 15:07:00,61.9,40.3,0.00,WNW,290,4.7,7.2,45,0.00,,---,0.00,VWS V13.01,2013-10-19 19:07:00,
2013-10-19 15:12:00,61.9,40.3,0.00,SSE,168,5.4,8.9,45,0.00,,---,0.00,VWS V13.01,2013-10-19 19:12:00,
2013-10-19 15:17:00,61.9,40.3,0.00,SSE,159,0.0,0.0,45,0.00,,---,0.00,VWS V13.01,2013-10-19 19:17:00,
2013-10-19 15:22:00,62.1,40.5,0.00,SE,136,0.0,7.2,45,0.00,,---,0.00,VWS V13.01,2013-10-19 19:22:00,
2013-10-19 15:27:00,62.1,40.5,0.00,SW,217,11.4,13.7,45,0.00,,---,0.00,VWS V13.01,2013-10-19 19:27:00,
2013-10-19 15:36:00,61.7,39.6,0.00,SSW,194,11.4,14.9,44,0.00,,---,0.00,VWS V13.01,2013-10-19 19:36:00,
2013-10-19 15:41:00,61.7,39.6,0.00,South,179,4.0,12.1,44,0.00,,---,0.00,VWS V13.01,2013-10-19 19:41:00,
2013-10-19 15:51:00,61.9,40.3,0.00,SSE,164,0.0,7.2,45,0.00,,---,0.00,VWS V13.01,2013-10-19 19:51:00,
2013-10-19 15:56:00,61.9,40.3,0.00,SSW,198,0.0,7.2,45,0.00,,---,0.00,VWS V13.01,2013-10-19 19:56:00,
2013-10-19 16:03:00,61.9,40.3,0.00,SSE,154,0.0,7.2,45,0.00,,---,0.00,VWS V13.01,2013-10-19 20:03:00,
2013-10-19 16:08:00,61.3,39.8,0.00,SSW,208,3.4,6.4,45,0.00,,---,0.00,VWS V13.01,2013-10-19 20:08:00,
2013-10-19 16:13:00,61.2,39.7,0.00,WNW,292,5.4,6.4,45,0.00,,---,0.00,VWS V13.01,2013-10-19 20:13:00,
2013-10-19 16:18:00,61.3,39.8,0.00,SSE,154,0.0,5.6,45,0.00,,---,0.00,VWS V13.01,2013-10-19 20:18:00,
2013-10-19 16:24:00,61.2,39.7,0.00,SSE,152,7.4,11.3,45,0.00,,---,0.00,VWS V13.01,2013-10-19 20:24:00,
2013-10-19 16:29:00,61.0,39.5,0.00,SSE,149,5.4,11.3,45,0.00,,---,0.00,VWS V13.01,2013-10-19 20:29:00,
2013-10-19 16:37:00,61.2,39.7,0.00,South,189,4.0,7.2,45,0.00,,---,0.00,VWS V13.01,2013-10-19 20:37:00,
2013-10-19 16:46:00,61.0,39.5,0.00,SSE,165,0.0,7.2,45,0.00,,---,0.00,VWS V13.01,2013-10-19 20:46:00,
2013-10-19 16:51:00,60.8,39.3,0.00,ESE,119,0.0,18.1,45,0.00,,---,0.00,VWS V13.01,2013-10-19 20:51:00,
2013-10-19 16:56:00,60.6,39.8,0.00,SE,138,6.0,19.7,46,0.00,,---,0.00,VWS V13.01,2013-10-19 20:56:00,
2013-10-19 17:01:00,60.4,39.6,0.00,SE,131,15.8,23.8,46,0.00,,---,0.00,VWS V13.01,2013-10-19 21:01:00,
2013-10-19 17:10:00,60.3,39.4,0.00,SSW,195,0.0,23.8,46,0.00,,---,0.00,VWS V13.01,2013-10-19 21:10:00,
2013-10-19 17:15:00,59.5,38.8,0.00,SSE,159,0.0,8.1,46,0.00,,---,0.00,VWS V13.01,2013-10-19 21:15:00,
2013-10-19 17:22:00,59.4,38.6,0.00,SW,223,4.0,13.7,46,0.00,,---,0.00,VWS V13.01,2013-10-19 21:22:00,
2013-10-19 17:27:00,58.8,39.2,0.00,SSE,150,16.4,23.0,48,0.00,,---,0.00,VWS V13.01,2013-10-19 21:27:00,
2013-10-19 17:35:00,58.5,38.9,0.00,West,274,4.0,10.5,48,0.00,,---,0.00,VWS V13.01,2013-10-19 21:35:00,
2013-10-19 17:40:00,57.9,39.4,0.00,SE,125,8.1,19.7,50,0.00,,---,0.00,VWS V13.01,2013-10-19 21:40:00,
2013-10-19 17:46:00,57.9,39.4,0.00,SW,223,6.0,19.7,50,0.00,,---,0.00,VWS V13.01,2013-10-19 21:46:00,
2013-10-19 17:57:00,57.6,39.6,0.00,SE,139,9.4,19.7,51,0.00,,---,0.00,VWS V13.01,2013-10-19 21:57:00,
2013-10-19 18:03:00,57.0,40.1,0.00,SW,236,4.7,19.7,53,0.00,,---,0.00,VWS V13.01,2013-10-19 22:03:00,
2013-10-19 18:08:00,56.3,40.4,0.00,SE,140,9.4,14.9,55,0.00,,---,0.00,VWS V13.01,2013-10-19 22:08:00,
2013-10-19 18:16:00,56.1,40.7,0.00,South,191,8.7,11.3,56,0.00,,---,0.00,VWS V13.01,2013-10-19 22:16:00,
2013-10-19 18:24:00,55.8,40.8,0.00,SSW,210,9.4,28.6,57,0.00,,---,0.00,VWS V13.01,2013-10-19 22:24:00,
2013-10-19 18:29:00,55.6,41.0,0.00,SW,231,0.0,14.9,58,0.00,,---,0.00,VWS V13.01,2013-10-19 22:29:00,
2013-10-19 18:39:00,55.2,41.6,0.00,South,170,4.0,9.7,60,0.00,,---,0.00,VWS V13.01,2013-10-19 22:39:00,
2013-10-19 18:44:00,54.1,41.8,0.00,SE,137,4.7,6.4,63,0.00,,---,0.00,VWS V13.01,2013-10-19 22:44:00,
2013-10-19 18:50:00,54.0,41.7,0.00,SSE,166,9.4,13.7,63,0.00,,---,0.00,VWS V13.01,2013-10-19 22:50:00,
2013-10-19 19:02:00,53.6,42.1,0.00,South,171,4.0,5.6,65,0.00,,---,0.00,VWS V13.01,2013-10-19 23:02:00,
2013-10-19 19:07:00,53.1,43.5,0.00,SE,145,0.0,11.3,70,0.00,,---,0.00,VWS V13.01,2013-10-19 23:07:00,
2013-10-19 19:12:00,52.9,44.1,0.00,SSE,151,9.4,14.9,72,0.00,,---,0.00,VWS V13.01,2013-10-19 23:12:00,
2013-10-19 19:18:00,52.7,44.3,0.00,West,268,3.4,12.9,73,0.00,,---,0.00,VWS V13.01,2013-10-19 23:18:00,
2013-10-19 19:24:00,52.5,44.5,0.00,SSW,203,6.0,7.2,74,0.00,,---,0.00,VWS V13.01,2013-10-19 23:24:00,
2013-10-19 19:31:00,52.2,45.2,0.00,SE,127,0.0,14.9,77,0.00,,---,0.00,VWS V13.01,2013-10-19 23:31:00,
2013-10-19 19:39:00,52.0,45.7,0.00,SE,142,0.0,15.7,79,0.00,,---,0.00,VWS V13.01,2013-10-19 23:39:00,
2013-10-19 19:44:00,51.8,45.8,0.00,SE,125,5.4,8.9,80,0.00,,---,0.00,VWS V13.01,2013-10-19 23:44:00,
2013-10-19 19:53:00,51.8,46.2,0.00,South,170,5.4,14.5,81,0.00,,---,0.00,VWS V13.01,2013-10-19 23:53:00,
2013-10-19 19:55:00,51.6,46.3,0.00,SE,141,0.0,6.4,82,0.00,,---,0.00,VWS V13.01,2013-10-19 23:55:00,
2013-10-19 20:03:00,51.6,46.3,0.00,SE,141,0.0,6.4,82,0.00,,---,0.00,VWS V13.01,2013-10-20 00:03:00,
2013-10-19 20:08:00,51.6,46.3,0.00,SE,141,0.0,0.0,82,0.00,,---,0.00,VWS V13.01,2013-10-20 00:08:00,
2013-10-19 20:17:00,51.4,47.1,0.00,ESE,110,0.0,0.0,85,0.00,,---,0.00,VWS V13.01,2013-10-20 00:17:00,
2013-10-19 20:22:00,51.3,47.2,0.00,SSW,202,4.0,6.4,86,0.00,,---,0.00,VWS V13.01,2013-10-20 00:22:00,
2013-10-19 20:28:00,51.1,47.0,0.00,South,188,0.0,0.0,86,0.00,,---,0.00,VWS V13.01,2013-10-20 00:28:00,
2013-10-19 20:33:00,50.7,47.3,0.00,WSW,258,4.0,4.8,88,0.00,,---,0.00,VWS V13.01,2013-10-20 00:33:00,
2013-10-19 20:38:00,50.7,47.6,0.00,West,274,0.0,6.4,89,0.00,,---,0.00,VWS V13.01,2013-10-20 00:38:00,
2013-10-19 20:51:00,50.5,47.4,0.00,WSW,256,0.0,11.3,89,0.00,,---,0.00,VWS V13.01,2013-10-20 00:51:00,
2013-10-19 20:56:00,50.5,48.3,0.00,WSW,257,0.0,0.0,92,0.00,,---,0.00,VWS V13.01,2013-10-20 00:56:00,
2013-10-19 21:03:00,50.5,48.3,0.00,WSW,257,0.0,0.0,92,0.00,,---,0.00,VWS V13.01,2013-10-20 01:03:00,
2013-10-19 21:08:00,50.7,48.8,0.00,SW,223,0.0,4.8,93,0.00,,---,0.00,VWS V13.01,2013-10-20 01:08:00,
2013-10-19 21:13:00,50.7,48.8,0.00,SW,223,0.0,0.0,93,0.00,,---,0.00,VWS V13.01,2013-10-20 01:13:00,
2013-10-19 21:19:00,50.7,49.1,0.00,SW,223,0.0,0.0,94,0.00,,---,0.00,VWS V13.01,2013-10-20 01:19:00,
2013-10-19 21:23:00,50.7,49.3,0.00,SW,223,0.0,0.0,95,0.00,,---,0.00,VWS V13.01,2013-10-20 01:23:00,
2013-10-19 21:29:00,50.7,49.3,0.00,SW,223,0.0,0.0,95,0.00,,---,0.00,VWS V13.01,2013-10-20 01:29:00,
2013-10-19 21:34:00,50.9,49.8,0.00,SW,223,0.0,0.0,96,0.00,,---,0.00,VWS V13.01,2013-10-20 01:34:00,
2013-10-19 21:39:00,50.9,49.8,0.00,SW,223,0.0,0.0,96,0.00,,---,0.00,VWS V13.01,2013-10-20 01:39:00,
2013-10-19 21:48:00,50.9,49.8,0.00,SSW,211,0.0,0.0,96,0.00,,---,0.00,VWS V13.01,2013-10-20 01:48:00,
2013-10-19 21:53:00,50.9,50.1,0.00,SE,125,0.0,0.0,97,0.00,,---,0.00,VWS V13.01,2013-10-20 01:53:00,
2013-10-19 22:01:00,50.9,50.4,0.00,SE,125,0.0,0.0,98,0.00,,---,0.00,VWS V13.01,2013-10-20 02:01:00,
2013-10-19 22:14:00,50.9,50.4,0.00,SE,126,0.0,0.0,98,0.00,,---,0.00,VWS V13.01,2013-10-20 02:14:00,
2013-10-19 22:19:00,50.9,50.6,0.00,WSW,243,4.0,6.4,99,0.00,,---,0.00,VWS V13.01,2013-10-20 02:19:00,
2013-10-19 22:24:00,50.9,50.6,0.00,WSW,244,0.0,0.0,99,0.00,,---,0.00,VWS V13.01,2013-10-20 02:24:00,
2013-10-19 22:29:00,50.9,50.6,0.00,SW,220,3.4,6.4,99,0.00,,---,0.00,VWS V13.01,2013-10-20 02:29:00,
2013-10-19 22:34:00,50.7,50.5,0.00,SSW,213,6.0,10.5,99,0.00,,---,0.00,VWS V13.01,2013-10-20 02:34:00,
2013-10-19 22:39:00,49.6,48.8,0.00,SSW,200,15.1,29.4,97,0.00,,---,0.00,VWS V13.01,2013-10-20 02:39:00,
2013-10-19 22:44:00,49.1,48.0,0.00,West,276,11.4,23.0,96,0.00,,---,0.00,VWS V13.01,2013-10-20 02:44:00,
2013-10-19 22:51:00,48.9,47.8,0.00,West,266,11.4,23.0,96,0.00,,---,0.00,VWS V13.01,2013-10-20 02:51:00,
2013-10-19 22:57:00,48.4,47.0,0.00,NW,321,8.1,23.0,95,0.00,,---,0.00,VWS V13.01,2013-10-20 02:57:00,
2013-10-19 23:02:00,47.7,46.3,0.00,WSW,243,7.4,21.3,95,0.00,,---,0.00,VWS V13.01,2013-10-20 03:02:00,
2013-10-19 23:07:00,47.7,46.3,0.00,West,272,4.0,21.3,95,0.00,,---,0.00,VWS V13.01,2013-10-20 03:07:00,
2013-10-19 23:12:00,47.1,45.5,0.00,South,183,15.8,21.3,94,0.00,,---,0.00,VWS V13.01,2013-10-20 03:12:00,
2013-10-19 23:23:00,46.8,44.8,0.00,West,265,25.5,30.6,93,0.00,,---,0.00,VWS V13.01,2013-10-20 03:23:00,
2013-10-19 23:31:00,46.4,44.2,0.00,South,179,8.1,30.6,92,0.00,,---,0.00,VWS V13.01,2013-10-20 03:31:00,
2013-10-19 23:36:00,46.2,44.3,0.00,West,277,0.0,14.9,93,0.00,,---,0.00,VWS V13.01,2013-10-20 03:36:00,
2013-10-19 23:43:00,46.2,44.0,0.00,NW,319,11.4,13.7,92,0.00,,---,0.00,VWS V13.01,2013-10-20 03:43:00,
2013-10-19 23:48:00,46.0,43.8,0.00,WNW,285,5.4,14.9,92,0.00,,---,0.00,VWS V13.01,2013-10-20 03:48:00,
2013-10-19 23:53:00,45.7,43.5,0.00,WSW,240,0.0,0.0,92,0.00,,---,0.00,VWS V13.01,2013-10-20 03:53:00,
2013-10-19 23:58:00,45.5,43.3,0.00,SW,233,4.0,14.5,92,0.00,,---,0.00,VWS V13.01,2013-10-20 03:58:00,